When you browse on this site, cookies collect data to enhance your experience and personalize the content and advertising you see.
Visit our Privacy Policy to learn more. By continuing to use the site, you agree to this use of cookies and data.

Hourly Weather Shornovo

Today, 15 August, Saturday

Time Temperature Precipitation Wind Pressure Humidity
00:00 +10°C° 0 mm 1 mps 750 mmHg 86%
01:00 +10°C° 0 mm 1 mps 750 mmHg 87%
02:00 +8°C° 0 mm 2 mps 750 mmHg 92%
03:00 +10°C° 0 mm 1 mps 750 mmHg 91%
04:00 +10°C° 0 mm 1 mps 750 mmHg 90%
05:00 +10°C° 0 mm 1 mps 750 mmHg 90%
06:00 +12°C° 0 mm 1 mps 750 mmHg 83%
07:00 +14°C° 0 mm 2 mps 750 mmHg 76%
08:00 +15°C° 0 mm 2 mps 750 mmHg 69%
09:00 +16°C° 0 mm 1 mps 750 mmHg 66%
10:00 +18°C° 0 mm 1 mps 750 mmHg 63%
11:00 +19°C° 0 mm 1 mps 750 mmHg 60%
12:00 +18°C° 0.2 mm 2 mps 749 mmHg 64%
13:00 +18°C° 0.2 mm 2 mps 749 mmHg 67%
14:00 +18°C° 0.2 mm 2 mps 749 mmHg 70%
15:00 +18°C° 0.3 mm 2 mps 749 mmHg 74%
16:00 +17°C° 0.3 mm 2 mps 749 mmHg 78%
17:00 +17°C° 0.3 mm 2 mps 748 mmHg 82%
18:00 +16°C° 0.1 mm 2 mps 748 mmHg 86%
19:00 +15°C° 0.1 mm 1 mps 748 mmHg 90%
20:00 +14°C° 0.1 mm 1 mps 748 mmHg 94%
21:00 +14°C° 0 mm 1 mps 748 mmHg 95%
22:00 +13°C° 0 mm 1 mps 748 mmHg 96%
23:00 +13°C° 0 mm 1 mps 748 mmHg 96%

Tomorrow, 16 August, Sunday

Time Temperature Precipitation Wind Pressure Humidity
00:00 +12°C° 0 mm 1 mps 748 mmHg 97%
01:00 +12°C° 0 mm 1 mps 748 mmHg 97%
02:00 +12°C° 0 mm 1 mps 748 mmHg 97%
03:00 +12°C° 0 mm 1 mps 748 mmHg 97%
04:00 +12°C° 0 mm 1 mps 747 mmHg 97%
05:00 +12°C° 0 mm 1 mps 747 mmHg 97%
06:00 +13°C° 0 mm 1 mps 747 mmHg 94%
07:00 +14°C° 0 mm 1 mps 747 mmHg 91%
08:00 +16°C° 0 mm 1 mps 747 mmHg 88%
09:00 +17°C° 0 mm 2 mps 747 mmHg 81%
10:00 +19°C° 0 mm 2 mps 747 mmHg 75%
11:00 +21°C° 0 mm 2 mps 746 mmHg 68%
12:00 +21°C° 0.1 mm 2 mps 746 mmHg 67%
13:00 +23°C° 0.1 mm 2 mps 746 mmHg 66%
14:00 +24°C° 0.1 mm 2 mps 746 mmHg 64%
15:00 +23°C° 0.3 mm 2 mps 746 mmHg 70%
16:00 +23°C° 0.3 mm 2 mps 745 mmHg 75%
17:00 +21°C° 0.3 mm 2 mps 745 mmHg 80%
18:00 +20°C° 0.2 mm 2 mps 745 mmHg 85%
19:00 +18°C° 0.2 mm 2 mps 745 mmHg 89%
20:00 +17°C° 0.2 mm 2 mps 745 mmHg 94%
21:00 +17°C° 0 mm 3 mps 745 mmHg 94%
22:00 +16°C° 0 mm 3 mps 745 mmHg 93%
23:00 +16°C° 0 mm 3 mps 745 mmHg 93%

Day after tomorrow, 17 August, Monday

Time Temperature Precipitation Wind Pressure Humidity
00:00 +16°C° 0 mm 3 mps 745 mmHg 94%
01:00 +15°C° 0 mm 2 mps 745 mmHg 95%
02:00 +15°C° 0 mm 2 mps 745 mmHg 96%
03:00 +15°C° 0 mm 2 mps 745 mmHg 96%
04:00 +15°C° 0 mm 2 mps 745 mmHg 96%
05:00 +15°C° 0 mm 2 mps 745 mmHg 97%
06:00 +16°C° 0.1 mm 2 mps 745 mmHg 93%
07:00 +17°C° 0.1 mm 2 mps 745 mmHg 90%
08:00 +18°C° 0.1 mm 2 mps 745 mmHg 86%
09:00 +21°C° 0.2 mm 1 mps 745 mmHg 79%
10:00 +22°C° 0.2 mm 1 mps 745 mmHg 71%
11:00 +24°C° 0.2 mm 1 mps 745 mmHg 64%
12:00 +24°C° 0.3 mm 1 mps 744 mmHg 64%
13:00 +24°C° 0.3 mm 1 mps 744 mmHg 64%
14:00 +24°C° 0.3 mm 2 mps 744 mmHg 64%
15:00 +23°C° 0.2 mm 2 mps 744 mmHg 67%
16:00 +23°C° 0.2 mm 2 mps 744 mmHg 71%
17:00 +21°C° 0.2 mm 2 mps 744 mmHg 75%
18:00 +20°C° 0 mm 2 mps 744 mmHg 79%
19:00 +19°C° 0 mm 1 mps 745 mmHg 84%
20:00 +16°C° 0 mm 1 mps 745 mmHg 89%
21:00 +15°C° 0 mm 1 mps 745 mmHg 90%
22:00 +14°C° 0 mm 1 mps 745 mmHg 90%
23:00 +13°C° 0 mm 1 mps 745 mmHg 91%

18 August, Tuesday

Time Temperature Precipitation Wind Pressure Humidity
00:00 +13°C° 0 mm 1 mps 746 mmHg 91%
01:00 +12°C° 0 mm 1 mps 746 mmHg 90%
02:00 +12°C° 0 mm 1 mps 746 mmHg 89%
03:00 +12°C° 0 mm 1 mps 746 mmHg 89%
04:00 +11°C° 0 mm 1 mps 746 mmHg 88%
05:00 +11°C° 0 mm 1 mps 746 mmHg 88%
06:00 +13°C° 0 mm 1 mps 746 mmHg 81%
07:00 +14°C° 0 mm 1 mps 746 mmHg 74%
08:00 +16°C° 0 mm 1 mps 746 mmHg 68%
09:00 +19°C° 0 mm 1 mps 746 mmHg 60%
10:00 +20°C° 0 mm 1 mps 747 mmHg 52%
11:00 +22°C° 0 mm 1 mps 747 mmHg 44%
12:00 +22°C° 0 mm 1 mps 746 mmHg 43%
13:00 +23°C° 0 mm 1 mps 746 mmHg 42%
14:00 +23°C° 0 mm 1 mps 746 mmHg 41%
15:00 +21°C° 0 mm 0 mps 746 mmHg 46%
16:00 +20°C° 0 mm 0 mps 746 mmHg 51%
17:00 +20°C° 0 mm 0 mps 746 mmHg 55%
18:00 +19°C° 0 mm 1 mps 746 mmHg 60%
19:00 +16°C° 0 mm 1 mps 746 mmHg 65%
20:00 +14°C° 0 mm 1 mps 745 mmHg 69%
21:00 +14°C° 0 mm 1 mps 746 mmHg 71%
22:00 +13°C° 0 mm 1 mps 746 mmHg 73%
23:00 +13°C° 0 mm 1 mps 746 mmHg 74%

19 August, Wednesday

Time Temperature Precipitation Wind Pressure Humidity
00:00 +13°C° 0 mm 2 mps 746 mmHg 73%
01:00 +13°C° 0 mm 2 mps 746 mmHg 73%
02:00 +13°C° 0 mm 2 mps 746 mmHg 72%
03:00 +13°C° 0 mm 2 mps 746 mmHg 73%
04:00 +13°C° 0 mm 1 mps 746 mmHg 75%
05:00 +13°C° 0 mm 1 mps 745 mmHg 77%
06:00 +14°C° 0 mm 1 mps 745 mmHg 73%
07:00 +16°C° 0 mm 1 mps 745 mmHg 69%
08:00 +18°C° 0 mm 1 mps 745 mmHg 65%
09:00 +19°C° 0 mm 2 mps 746 mmHg 60%
10:00 +21°C° 0 mm 2 mps 746 mmHg 54%
11:00 +24°C° 0 mm 2 mps 746 mmHg 49%
12:00 +25°C° 0 mm 2 mps 745 mmHg 48%
13:00 +25°C° 0 mm 2 mps 745 mmHg 47%
14:00 +26°C° 0 mm 2 mps 745 mmHg 46%
15:00 +25°C° 0 mm 2 mps 745 mmHg 50%
16:00 +24°C° 0 mm 2 mps 744 mmHg 55%
17:00 +24°C° 0 mm 2 mps 744 mmHg 60%
18:00 +21°C° 0 mm 2 mps 744 mmHg 65%
19:00 +19°C° 0 mm 2 mps 744 mmHg 70%
20:00 +17°C° 0 mm 2 mps 744 mmHg 76%
21:00 +16°C° 0 mm 2 mps 744 mmHg 78%
22:00 +15°C° 0 mm 2 mps 744 mmHg 80%
23:00 +15°C° 0 mm 2 mps 744 mmHg 82%

20 August, Thursday

Time Temperature Precipitation Wind Pressure Humidity
00:00 +14°C° 0 mm 2 mps 744 mmHg 83%
01:00 +14°C° 0 mm 2 mps 744 mmHg 85%
02:00 +14°C° 0 mm 2 mps 744 mmHg 87%
03:00 +14°C° 0 mm 2 mps 744 mmHg 87%
04:00 +14°C° 0 mm 2 mps 744 mmHg 88%
05:00 +14°C° 0 mm 2 mps 744 mmHg 88%
06:00 +14°C° 0 mm 3 mps 743 mmHg 83%
07:00 +17°C° 0 mm 3 mps 743 mmHg 78%
08:00 +19°C° 0 mm 3 mps 743 mmHg 74%
09:00 +19°C° 0.2 mm 3 mps 743 mmHg 77%
10:00 +19°C° 0.2 mm 4 mps 743 mmHg 80%
11:00 +20°C° 0.2 mm 4 mps 743 mmHg 82%
12:00 +19°C° 0.5 mm 3 mps 743 mmHg 87%
13:00 +18°C° 0.5 mm 3 mps 743 mmHg 91%
14:00 +18°C° 0.5 mm 3 mps 743 mmHg 95%
15:00 +18°C° 0.1 mm 3 mps 743 mmHg 94%
16:00 +19°C° 0.1 mm 3 mps 743 mmHg 94%
17:00 +19°C° 0.1 mm 3 mps 742 mmHg 93%
18:00 +19°C° 0.1 mm 3 mps 742 mmHg 94%
19:00 +18°C° 0.1 mm 3 mps 742 mmHg 96%
20:00 +18°C° 0.1 mm 3 mps 742 mmHg 97%
21:00 +17°C° 0.1 mm 2 mps 742 mmHg 97%
22:00 +17°C° 0.1 mm 2 mps 742 mmHg 98%
23:00 +17°C° 0.1 mm 2 mps 742 mmHg 98%
Show more